Regional Weather Roundup
Issued by NWS Upton, NY

Current Version | Previous Version | Graphics & Text | Print | Product List | Glossary Off
Versions: 1 2 3 4 5 6 7 8 9 10 11 12 13 14 15 16 17 18 19 20 21 22 23 24 25 26 27 28 29 30 31 32 33 34 35 36 37 38 39 40 41 42 43 44 45 46 47 48 49 50
000 ASUS41 KOKX 221105 RWROKX REGIONAL WEATHER ROUNDUP NATIONAL WEATHER SERVICE NEW YORK NY 700 AM EDT MON SEP 22 2014 NOTE: "FAIR" INDICATES FEW OR NO CLOUDS BELOW 12,000 FEET WITH NO SIGNIFICANT WEATHER AND/OR OBSTRUCTIONS TO VISIBILITY. NYZ071-072-176-178-NJZ106-104-221200- NEW YORK CITY METRO AREA CITY SKY/WX TMP DP RH WIND PRES REMARKS CENTRAL PARK CLEAR 64 53 67 W7 29.80R LAGUARDIA APRT PTCLDY 65 53 65 W14G21 29.77R KENNEDY INTL PTCLDY 65 52 62 W16G24 29.78R NEWARK/LIBERTY PTCLDY 63 53 70 W10G21 29.78R BRNX BOT. GARD N/A 64 52 63 W6 29.78R TETERBORO CLEAR 63 52 67 W8 29.76R $$ NYZ177-179-078>081-221200- LONG ISLAND NEW YORK CITY SKY/WX TMP DP RH WIND PRES REMARKS FARMINGDALE CLEAR 64 54 69 W7 29.76R ISLIP PTCLDY 62 56 80 W8 29.73R SHIRLEY CLEAR 62 56 80 W7 29.75R WESTHAMPTON CLEAR 60 54 80 W8 29.75R MONTAUK POINT N/A 68 57 68 W10 29.72R $$ NYZ052-065-067-221200- HUDSON VALLEY CITY SKY/WX TMP DP RH WIND PRES REMARKS WHITE PLAINS CLEAR 61 53 75 W8 29.75R NEWBURGH PTCLDY 57 55 94 W12 29.76R MONTGOMERY CLEAR 57 52 83 SW6 29.76R POUGHKEEPSIE PTCLDY 60 55 83 SW10 29.73R ALBANY MOCLDY 60 51 72 NW18G28 29.72R $$ NJZ001-105-106-008-010-013-015-019>022-104-221200- NEW JERSEY CITY SKY/WX TMP DP RH WIND PRES REMARKS NEWARK/LIBERTY PTCLDY 63 53 70 W10G21 29.78R TETERBORO CLEAR 63 52 67 W8 29.76R CALDWELL CLEAR 60 51 72 VRB3 29.79R MORRISTOWN CLEAR 63 54 72 W6 29.78R SOMERVILLE CLEAR 61 51 70 VRB3 29.78R LINDEN FAIR 67 55 66 W7 29.80R SUSSEX CLEAR 58 53 84 SW6 29.79R ANDOVER N/A 57 52 83 MISG 29.80R TRENTON CLEAR 61 50 67 W8 29.81R MILLVILLE CLEAR 61 51 70 W9 29.85R ATLANTIC CITY CLEAR 62 54 74 W8 29.84R WRIGHTSTOWN CLEAR 61 53 72 W9 29.81R TOMS RIVER CLEAR 59 55 88 W3 29.82R BELMAR CLEAR 61 50 67 W5 29.80R $$ PAZ047>061-062-071-221200- EASTERN PENNSYLVANIA CITY SKY/WX TMP DP RH WIND PRES REMARKS PHILADELPHIA PTCLDY 63 50 62 W9 29.84R ALLENTOWN CLEAR 60 48 64 W8 29.82R SCRANTON CLOUDY 57 52 83 SW6 29.83R $$ CTZ002-004>006-009-010-012-RIZ004-006-007-MAZ004-011-015-221200- SOUTHERN NEW ENGLAND IN CT CITY SKY/WX TMP DP RH WIND PRES REMARKS BRADLEY INTL PTCLDY 59 54 83 W5 29.69R HARTFORD CLEAR 62 55 77 SW8 29.70R DANBURY CLEAR 57 54 89 W7 29.74R WTRBRY/OXFORD CLEAR 57 52 82 CALM 29.74R BRIDGEPORT CLEAR 63 57 81 W10 29.73R MERIDEN CLEAR 61 53 75 W7 29.71R NEW HAVEN CLEAR 65 55 70 VRB7 29.73R CHESTER FAIR 59 59 100 W6 29.71R GROTON CLEAR 63 58 83 W12 29.69R WILLIMANTIC CLEAR 58 56 93 SW3 29.70R IN RI CITY SKY/WX TMP DP RH WIND PRES REMARKS PROVIDENCE PTCLDY 62 57 83 W6 29.68R BLOCK ISLAND CLEAR 66 61 82 W13G20 29.70R WESTERLY CLEAR 62 59 90 CALM 29.70R IN MA CITY SKY/WX TMP DP RH WIND PRES REMARKS BOSTON PTCLDY 65 56 72 W14G21 29.63R WORCESTER CLEAR 57 52 83 W13 29.67R WESTFIELD CLEAR 60 52 74 W6 29.69R PROVINCETOWN PTCLDY 64 63 94 W12 29.65R NANTUCKET CLOUDY 67 66 97 SW14 29.68R FOG $$ ANZ330-335-338-340-345-350-353-355-221200- COASTAL MARINE OBSERVATIONS STATION/POSITION TIME SKY/WX TEMP WIND PRES VSBY WAVE AIR SEA DIR/SP/G HT/PER (UTC) (F) (DEG/KT/KT) (MB) (MI) (FT/S) NY HARB ENTRANCE 1100 68 70 280/ 21/ 27 1007.9 4/ 8 4S FIRE IS 1100 70 N/A 6/11 20S FIRE ISLAND 1100 69 69 290/ 19/ 25 1007.1 7/10 23SW MTP 1100 N/A 8/11 HUDSON CANYON 1100 71 70 310/ 14/ 19 1007.9 9/10 EXECUTION ROCKS 1100 66 70 290/ 14/ 19 N/A WESTERN LI SOUND 1100 66 270/ 16/ 17 N/A 1 CENTRAL LI SOUND 1000 68 70 260/ 19/ 23 N/A 2/ 4 EASTERN LI SOUND 1000 67 68 270/ 16/ 21 N/A ROBBINS REEF 1100 65 280/ 13/ 17 1007.0 $$ >>>>>>>>>>>>>>>>>>>>>>>>>>>> KEY <<<<<<<<<<<<<<<<<<<<<<<<<<< > < > SKY/WX - SKY CONDITION/PRESENT WEATHER < > TMP - TEMPERATURE IN FAHRENHEIT < > DP - DEWPOINT IN FAHRENHEIT < > RH - RELATIVE HUMIDITY IN PERCENT < > WIND - DIRECTION AND SPEED IN MPH < > PRES - MEAN SEA LEVEL PRESSURE IN INCHES OF HG < > WCI - WIND CHILL INDEX < > VSB - VISIBILITY IN MILES < > HX - HEAT INDEX < > TC - TEMPERATURE IN CELSIUS < > VRB - VARIABLE WIND DIRECTION < > < >>>>>>>>>>>>>>>>>>>>>>>>>>>> KEY <<<<<<<<<<<<<<<<<<<<<<<<<<<

USA.gov is the U.S. government's official web portal to all federal, state and local government web resources and services.